• In India
  • List of Countries
  • For 7 days
  • Water Temperature
  • Satellite Maps
  • Weather Map
  • Weather Widgets
  • user-avatar
    Login

    Hourly Weather Kokorzyce

    Today, 20 July, Friday

    Time Temperature Precipitation Wind Pressure Humidity
    00:00 +17°C° 0 mm 3 mps 749 mmHg 95%
    01:00 +17°C° 0 mm 3 mps 749 mmHg 96%
    02:00 +16°C° 0 mm 3 mps 749 mmHg 96%
    03:00 +16°C° 0 mm 3 mps 748 mmHg 96%
    04:00 +16°C° 0 mm 3 mps 748 mmHg 95%
    05:00 +17°C° 0 mm 3 mps 749 mmHg 90%
    06:00 +18°C° 0 mm 3 mps 749 mmHg 84%
    07:00 +19°C° 0 mm 3 mps 749 mmHg 79%
    08:00 +20°C° 0 mm 3 mps 749 mmHg 71%
    09:00 +22°C° 0 mm 4 mps 749 mmHg 63%
    10:00 +23°C° 0 mm 4 mps 749 mmHg 55%
    11:00 +25°C° 0 mm 4 mps 748 mmHg 52%
    12:00 +26°C° 0 mm 4 mps 748 mmHg 48%
    13:00 +27°C° 0 mm 4 mps 748 mmHg 45%
    14:00 +27°C° 0 mm 4 mps 748 mmHg 45%
    15:00 +27°C° 0 mm 4 mps 748 mmHg 45%
    16:00 +27°C° 0 mm 3 mps 747 mmHg 45%
    17:00 +26°C° 0 mm 3 mps 747 mmHg 51%
    18:00 +24°C° 0 mm 2 mps 747 mmHg 57%
    19:00 +23°C° 0 mm 2 mps 747 mmHg 63%
    20:00 +22°C° 0 mm 1 mps 747 mmHg 66%
    21:00 +20°C° 0 mm 1 mps 748 mmHg 68%
    22:00 +19°C° 0 mm 1 mps 748 mmHg 70%
    23:00 +18°C° 0 mm 1 mps 748 mmHg 72%

    Tomorrow, 21 July, Saturday

    Time Temperature Precipitation Wind Pressure Humidity
    00:00 +18°C° 0 mm 1 mps 748 mmHg 74%
    01:00 +18°C° 0 mm 1 mps 747 mmHg 76%
    02:00 +16°C° 0 mm 1 mps 747 mmHg 77%
    03:00 +16°C° 0 mm 1 mps 747 mmHg 78%
    04:00 +16°C° 0 mm 1 mps 747 mmHg 80%
    05:00 +18°C° 0 mm 1 mps 747 mmHg 75%
    06:00 +20°C° 0 mm 1 mps 747 mmHg 70%
    07:00 +22°C° 0 mm 1 mps 747 mmHg 65%
    08:00 +23°C° 0 mm 1 mps 747 mmHg 60%
    09:00 +25°C° 0 mm 1 mps 747 mmHg 55%
    10:00 +26°C° 0 mm 1 mps 747 mmHg 50%
    11:00 +27°C° 0 mm 1 mps 747 mmHg 48%
    12:00 +27°C° 0 mm 1 mps 747 mmHg 45%
    13:00 +28°C° 0 mm 1 mps 746 mmHg 43%
    14:00 +28°C° 0 mm 1 mps 746 mmHg 43%
    15:00 +28°C° 0 mm 1 mps 746 mmHg 43%
    16:00 +28°C° 0 mm 1 mps 746 mmHg 42%
    17:00 +27°C° 0 mm 1 mps 746 mmHg 48%
    18:00 +25°C° 0 mm 1 mps 746 mmHg 54%
    19:00 +24°C° 0 mm 2 mps 746 mmHg 60%
    20:00 +23°C° 0 mm 2 mps 746 mmHg 63%
    21:00 +20°C° 0 mm 2 mps 746 mmHg 65%
    22:00 +20°C° 0 mm 1 mps 746 mmHg 67%
    23:00 +20°C° 0 mm 1 mps 746 mmHg 69%

    Day after tomorrow, 22 July, Sunday

    Time Temperature Precipitation Wind Pressure Humidity
    00:00 +19°C° 0 mm 1 mps 746 mmHg 70%
    01:00 +19°C° 0 mm 1 mps 746 mmHg 71%
    02:00 +18°C° 0 mm 1 mps 746 mmHg 74%
    03:00 +16°C° 0 mm 0 mps 746 mmHg 76%
    04:00 +15°C° 0 mm 0 mps 746 mmHg 78%
    05:00 +19°C° 0 mm 1 mps 746 mmHg 75%
    06:00 +20°C° 0 mm 1 mps 746 mmHg 71%
    07:00 +22°C° 0 mm 1 mps 746 mmHg 67%
    08:00 +23°C° 0 mm 1 mps 746 mmHg 63%
    09:00 +24°C° 0 mm 2 mps 746 mmHg 58%
    10:00 +26°C° 0 mm 2 mps 746 mmHg 53%
    11:00 +26°C° 0 mm 2 mps 746 mmHg 50%
    12:00 +27°C° 0 mm 2 mps 746 mmHg 47%
    13:00 +28°C° 0 mm 2 mps 745 mmHg 44%
    14:00 +28°C° 0 mm 2 mps 745 mmHg 43%
    15:00 +28°C° 0 mm 2 mps 745 mmHg 43%
    16:00 +28°C° 0 mm 2 mps 745 mmHg 43%
    17:00 +27°C° 0 mm 2 mps 745 mmHg 50%
    18:00 +26°C° 0 mm 2 mps 745 mmHg 57%
    19:00 +24°C° 0 mm 2 mps 745 mmHg 64%
    20:00 +23°C° 0 mm 2 mps 745 mmHg 69%
    21:00 +21°C° 0 mm 2 mps 746 mmHg 74%
    22:00 +20°C° 0 mm 2 mps 746 mmHg 79%
    23:00 +19°C° 0 mm 2 mps 746 mmHg 81%

    23 July, Monday

    Time Temperature Precipitation Wind Pressure Humidity
    00:00 +19°C° 0 mm 2 mps 746 mmHg 83%
    01:00 +18°C° 0 mm 2 mps 746 mmHg 86%
    02:00 +18°C° 0 mm 2 mps 746 mmHg 86%
    03:00 +18°C° 0 mm 2 mps 746 mmHg 87%
    04:00 +18°C° 0 mm 2 mps 746 mmHg 87%
    05:00 +19°C° 0 mm 2 mps 746 mmHg 84%
    06:00 +20°C° 0 mm 2 mps 746 mmHg 81%
    07:00 +21°C° 0 mm 2 mps 747 mmHg 78%
    08:00 +24°C° 0.3 mm 3 mps 747 mmHg 71%
    09:00 +25°C° 0.3 mm 3 mps 747 mmHg 64%
    10:00 +27°C° 0.3 mm 4 mps 747 mmHg 57%
    11:00 +27°C° 0.1 mm 4 mps 746 mmHg 54%
    12:00 +28°C° 0.1 mm 4 mps 746 mmHg 52%
    13:00 +28°C° 0.1 mm 4 mps 746 mmHg 49%
    14:00 +28°C° 0.1 mm 4 mps 746 mmHg 50%
    15:00 +28°C° 0.1 mm 4 mps 746 mmHg 51%
    16:00 +28°C° 0.1 mm 4 mps 746 mmHg 52%
    17:00 +27°C° 0.2 mm 3 mps 746 mmHg 57%
    18:00 +26°C° 0.2 mm 2 mps 746 mmHg 63%
    19:00 +25°C° 0.2 mm 1 mps 746 mmHg 68%
    20:00 +23°C° 0.1 mm 1 mps 747 mmHg 72%
    21:00 +22°C° 0.1 mm 1 mps 747 mmHg 75%
    22:00 +21°C° 0.1 mm 1 mps 747 mmHg 79%
    23:00 +20°C° 0 mm 1 mps 747 mmHg 80%

    24 July, Tuesday

    Time Temperature Precipitation Wind Pressure Humidity
    00:00 +20°C° 0 mm 1 mps 747 mmHg 82%
    01:00 +19°C° 0 mm 1 mps 747 mmHg 83%
    02:00 +19°C° 0 mm 1 mps 747 mmHg 84%
    03:00 +19°C° 0 mm 1 mps 747 mmHg 85%
    04:00 +19°C° 0 mm 1 mps 747 mmHg 86%
    05:00 +20°C° 0 mm 1 mps 747 mmHg 82%
    06:00 +21°C° 0 mm 1 mps 747 mmHg 78%
    07:00 +22°C° 0 mm 1 mps 747 mmHg 74%
    08:00 +23°C° 0.1 mm 2 mps 747 mmHg 70%
    09:00 +25°C° 0.1 mm 2 mps 747 mmHg 65%
    10:00 +26°C° 0.1 mm 3 mps 747 mmHg 60%
    11:00 +27°C° 0.1 mm 3 mps 747 mmHg 57%
    12:00 +27°C° 0.1 mm 3 mps 746 mmHg 54%
    13:00 +28°C° 0.1 mm 3 mps 746 mmHg 51%
    14:00 +28°C° 0 mm 3 mps 746 mmHg 52%
    15:00 +28°C° 0 mm 3 mps 746 mmHg 53%
    16:00 +27°C° 0 mm 3 mps 746 mmHg 55%
    17:00 +27°C° 0.1 mm 2 mps 746 mmHg 60%
    18:00 +26°C° 0.1 mm 2 mps 746 mmHg 64%
    19:00 +25°C° 0.1 mm 1 mps 746 mmHg 69%
    20:00 +23°C° 0.1 mm 1 mps 746 mmHg 73%
    21:00 +22°C° 0.1 mm 1 mps 746 mmHg 76%
    22:00 +21°C° 0.1 mm 1 mps 746 mmHg 80%
    23:00 +21°C° 0 mm 1 mps 746 mmHg 81%

    25 July, Wednesday

    Time Temperature Precipitation Wind Pressure Humidity
    00:00 +20°C° 0 mm 1 mps 746 mmHg 83%
    01:00 +20°C° 0 mm 1 mps 746 mmHg 85%
    02:00 +20°C° 0 mm 1 mps 746 mmHg 86%
    03:00 +19°C° 0 mm 1 mps 746 mmHg 88%
    04:00 +19°C° 0 mm 1 mps 746 mmHg 90%
    05:00 +20°C° 0 mm 1 mps 747 mmHg 86%
    06:00 +21°C° 0 mm 1 mps 747 mmHg 81%
    07:00 +23°C° 0 mm 2 mps 747 mmHg 77%
    08:00 +24°C° 0.1 mm 2 mps 747 mmHg 70%
    09:00 +25°C° 0.1 mm 2 mps 747 mmHg 64%
    10:00 +27°C° 0.1 mm 2 mps 747 mmHg 58%
    11:00 +27°C° 0 mm 2 mps 747 mmHg 54%
    12:00 +28°C° 0 mm 2 mps 747 mmHg 51%
    13:00 +29°C° 0 mm 3 mps 746 mmHg 47%
    14:00 +29°C° 0 mm 3 mps 746 mmHg 47%
    15:00 +29°C° 0 mm 3 mps 746 mmHg 47%
    16:00 +29°C° 0 mm 3 mps 746 mmHg 47%
    17:00 +28°C° 0 mm 2 mps 746 mmHg 52%
    18:00 +27°C° 0 mm 2 mps 746 mmHg 57%
    19:00 +26°C° 0 mm 1 mps 746 mmHg 62%
    20:00 +24°C° 0 mm 1 mps 747 mmHg 65%
    21:00 +23°C° 0 mm 1 mps 747 mmHg 67%
    22:00 +20°C° 0 mm 0 mps 747 mmHg 70%
    23:00 +21°C° 0 mm 1 mps 747 mmHg 70%
    Show more